Вернуться в каталог

YAOGAN-43 02E

АктивенВоенныеVLEO
NORAD 60949·PAYLOAD·🇨🇳 China

Запущен Sep 3, 2024 с Xichang Satellite Launch Center

Loading…

Ближайшие Пролёты (ближайшие 24 часа)

TLE

СвежийSource: Space-Track

Эпоха: Sep 14, 2026, 14:25 UTC

1 60949U 24156E   26257.60084950  .00010411  00000-0  43242-3 0  9995
2 60949  34.9985 355.8381 0005126  48.0757 312.0394 15.23045078113086

Отслеживайте YAOGAN-43 02E в реальном времени с AllMySat

Download on the App Store